When you browse on this site, cookies collect data to enhance your experience and personalize the content and advertising you see.
Visit our Privacy Policy to learn more. By continuing to use the site, you agree to this use of cookies and data.
  • In Latvia
  • List of Countries
  • For 7 days
  • Water Temperature
  • Weather Map
  • Weather Widgets
  • user-avatar
    Login

    Hourly Weather Brussels

    Today, 10 December, Tuesday

    Time Temperature Precipitation Wind Pressure Humidity
    00:00 +3°C° 0 mm 3 mps 764 mmHg 85%
    01:00 +3°C° 0 mm 3 mps 764 mmHg 86%
    02:00 +3°C° 0 mm 3 mps 765 mmHg 87%
    03:00 +2°C° 0 mm 3 mps 765 mmHg 88%
    04:00 +2°C° 0 mm 3 mps 765 mmHg 88%
    05:00 +1°C° 0 mm 3 mps 765 mmHg 88%
    06:00 +1°C° 0 mm 3 mps 766 mmHg 90%
    07:00 0°C° 0 mm 4 mps 765 mmHg 86%
    08:00 +1°C° 0 mm 4 mps 765 mmHg 82%
    09:00 +1°C° 0 mm 5 mps 765 mmHg 78%
    10:00 +2°C° 0 mm 6 mps 765 mmHg 75%
    11:00 +3°C° 0 mm 7 mps 764 mmHg 71%
    12:00 +4°C° 0 mm 8 mps 764 mmHg 68%
    13:00 +4°C° 0 mm 8 mps 762 mmHg 68%
    14:00 +2°C° 0 mm 8 mps 761 mmHg 68%
    15:00 +2°C° 0 mm 8 mps 760 mmHg 68%
    16:00 +2°C° 0 mm 8 mps 760 mmHg 69%
    17:00 +2°C° 0 mm 9 mps 759 mmHg 69%
    18:00 +2°C° 0 mm 9 mps 759 mmHg 70%
    19:00 +2°C° 0 mm 9 mps 758 mmHg 72%
    20:00 +3°C° 0 mm 10 mps 757 mmHg 73%
    21:00 +3°C° 0 mm 10 mps 756 mmHg 75%
    22:00 +3°C° 0 mm 10 mps 755 mmHg 74%
    23:00 +3°C° 0 mm 10 mps 755 mmHg 73%

    Tomorrow, 11 December, Wednesday

    Time Temperature Precipitation Wind Pressure Humidity
    00:00 +3°C° 0 mm 10 mps 755 mmHg 73%
    01:00 +3°C° 0.2 mm 9 mps 754 mmHg 78%
    02:00 +4°C° 0.2 mm 7 mps 754 mmHg 83%
    03:00 +4°C° 0.2 mm 6 mps 754 mmHg 88%
    04:00 +5°C° 0.3 mm 5 mps 754 mmHg 89%
    05:00 +5°C° 0.3 mm 4 mps 754 mmHg 89%
    06:00 +5°C° 0.3 mm 3 mps 754 mmHg 90%
    07:00 +5°C° 0 mm 3 mps 753 mmHg 88%
    08:00 +5°C° 0 mm 3 mps 753 mmHg 85%
    09:00 +5°C° 0 mm 3 mps 753 mmHg 82%
    10:00 +5°C° 0 mm 3 mps 753 mmHg 79%
    11:00 +6°C° 0 mm 4 mps 752 mmHg 77%
    12:00 +6°C° 0 mm 4 mps 752 mmHg 74%
    13:00 +6°C° 0 mm 4 mps 751 mmHg 76%
    14:00 +6°C° 0 mm 4 mps 751 mmHg 77%
    15:00 +6°C° 0 mm 4 mps 750 mmHg 79%
    16:00 +5°C° 0 mm 4 mps 750 mmHg 80%
    17:00 +5°C° 0 mm 5 mps 749 mmHg 81%
    18:00 +3°C° 0 mm 5 mps 749 mmHg 82%
    19:00 +3°C° 0.1 mm 5 mps 749 mmHg 83%
    20:00 +3°C° 0.1 mm 5 mps 749 mmHg 85%
    21:00 +3°C° 0.1 mm 5 mps 749 mmHg 86%
    22:00 +2°C° 0.4 mm 5 mps 749 mmHg 86%
    23:00 +3°C° 0.4 mm 4 mps 749 mmHg 86%

    Day after tomorrow, 12 December, Thursday

    Time Temperature Precipitation Wind Pressure Humidity
    00:00 +3°C° 0.4 mm 3 mps 748 mmHg 86%
    01:00 +3°C° 0 mm 4 mps 749 mmHg 86%
    02:00 +3°C° 0 mm 4 mps 749 mmHg 85%
    03:00 +1°C° 0 mm 4 mps 749 mmHg 85%
    04:00 +1°C° 0 mm 4 mps 749 mmHg 86%
    05:00 0°C° 0 mm 4 mps 749 mmHg 86%
    06:00 0°C° 0 mm 4 mps 749 mmHg 87%
    07:00 0°C° 0 mm 4 mps 749 mmHg 86%
    08:00 0°C° 0 mm 4 mps 749 mmHg 85%
    09:00 0°C° 0 mm 5 mps 749 mmHg 85%
    10:00 +1°C° 0 mm 5 mps 749 mmHg 82%
    11:00 +2°C° 0 mm 6 mps 748 mmHg 78%
    12:00 +3°C° 0 mm 6 mps 747 mmHg 75%
    13:00 +3°C° 0 mm 7 mps 746 mmHg 75%
    14:00 +3°C° 0 mm 7 mps 745 mmHg 76%
    15:00 +2°C° 0 mm 7 mps 743 mmHg 76%
    16:00 +1°C° 0 mm 8 mps 741 mmHg 77%
    17:00 +1°C° 0 mm 8 mps 740 mmHg 78%
    18:00 +1°C° 0 mm 9 mps 738 mmHg 79%
    19:00 +1°C° 0.8 mm 10 mps 735 mmHg 81%
    20:00 +2°C° 0.8 mm 11 mps 733 mmHg 84%
    21:00 +2°C° 0.8 mm 12 mps 730 mmHg 86%
    22:00 +3°C° 1.3 mm 11 mps 729 mmHg 87%
    23:00 +5°C° 1.3 mm 10 mps 727 mmHg 88%

    13 December, Friday

    Time Temperature Precipitation Wind Pressure Humidity
    00:00 +6°C° 1.3 mm 10 mps 725 mmHg 89%
    01:00 +5°C° 1 mm 10 mps 724 mmHg 87%
    02:00 +5°C° 1 mm 10 mps 724 mmHg 85%
    03:00 +5°C° 1 mm 10 mps 723 mmHg 83%
    04:00 +3°C° 0.4 mm 9 mps 723 mmHg 84%
    05:00 +3°C° 0.4 mm 9 mps 724 mmHg 86%
    06:00 +4°C° 0.4 mm 8 mps 724 mmHg 87%
    07:00 +4°C° 0.6 mm 7 mps 725 mmHg 88%
    08:00 +4°C° 0.6 mm 7 mps 725 mmHg 89%
    09:00 +4°C° 0.6 mm 7 mps 726 mmHg 90%
    10:00 +4°C° 0.4 mm 7 mps 727 mmHg 85%
    11:00 +5°C° 0.4 mm 8 mps 728 mmHg 80%
    12:00 +5°C° 0.4 mm 8 mps 729 mmHg 75%
    13:00 +5°C° 0.1 mm 8 mps 730 mmHg 76%
    14:00 +5°C° 0.1 mm 8 mps 731 mmHg 77%
    15:00 +5°C° 0.1 mm 8 mps 732 mmHg 78%
    16:00 +5°C° 0.1 mm 7 mps 733 mmHg 78%
    17:00 +5°C° 0.1 mm 7 mps 734 mmHg 79%
    18:00 +5°C° 0.1 mm 6 mps 736 mmHg 79%
    19:00 +5°C° 0 mm 6 mps 736 mmHg 79%
    20:00 +5°C° 0 mm 6 mps 737 mmHg 79%
    21:00 +6°C° 0 mm 5 mps 738 mmHg 79%
    22:00 +5°C° 0 mm 5 mps 738 mmHg 81%
    23:00 +4°C° 0 mm 6 mps 739 mmHg 82%

    14 December, Saturday

    Time Temperature Precipitation Wind Pressure Humidity
    00:00 +3°C° 0 mm 6 mps 739 mmHg 83%
    01:00 +4°C° 0.1 mm 7 mps 738 mmHg 84%
    02:00 +3°C° 0.1 mm 9 mps 737 mmHg 85%
    03:00 +5°C° 0.1 mm 10 mps 736 mmHg 86%
    04:00 +5°C° 0.2 mm 9 mps 737 mmHg 82%
    05:00 +5°C° 0.2 mm 8 mps 737 mmHg 77%
    06:00 +6°C° 0.2 mm 8 mps 737 mmHg 73%
    07:00 +5°C° 0.1 mm 8 mps 738 mmHg 71%
    08:00 +5°C° 0.1 mm 8 mps 739 mmHg 68%
    09:00 +4°C° 0.1 mm 8 mps 740 mmHg 66%
    10:00 +5°C° 0.2 mm 8 mps 740 mmHg 72%
    11:00 +5°C° 0.2 mm 8 mps 740 mmHg 77%
    12:00 +5°C° 0.2 mm 8 mps 741 mmHg 82%
    13:00 +5°C° 0.4 mm 8 mps 741 mmHg 77%
    14:00 +5°C° 0.4 mm 9 mps 742 mmHg 71%
    15:00 +5°C° 0.4 mm 10 mps 742 mmHg 65%
    16:00 +5°C° 0.1 mm 9 mps 743 mmHg 67%
    17:00 +4°C° 0.1 mm 8 mps 744 mmHg 69%
    18:00 +4°C° 0.1 mm 8 mps 745 mmHg 70%
    19:00 +3°C° 0 mm 7 mps 746 mmHg 71%
    20:00 +3°C° 0 mm 7 mps 746 mmHg 72%
    21:00 +3°C° 0 mm 6 mps 747 mmHg 73%
    22:00 +3°C° 0 mm 7 mps 747 mmHg 75%
    23:00 +3°C° 0 mm 7 mps 747 mmHg 78%

    15 December, Sunday

    Time Temperature Precipitation Wind Pressure Humidity
    00:00 +3°C° 0 mm 7 mps 747 mmHg 80%
    01:00 +3°C° 0 mm 7 mps 746 mmHg 82%
    02:00 +3°C° 0 mm 7 mps 745 mmHg 83%
    03:00 +3°C° 0 mm 7 mps 745 mmHg 85%
    04:00 +4°C° 0.4 mm 8 mps 744 mmHg 84%
    05:00 +5°C° 0.4 mm 9 mps 743 mmHg 83%
    06:00 +7°C° 0.4 mm 10 mps 743 mmHg 82%
    07:00 +6°C° 0.1 mm 9 mps 744 mmHg 78%
    08:00 +5°C° 0.1 mm 7 mps 745 mmHg 74%
    09:00 +4°C° 0.1 mm 6 mps 746 mmHg 70%
    10:00 +5°C° 0 mm 7 mps 746 mmHg 68%
    11:00 +5°C° 0 mm 8 mps 747 mmHg 66%
    12:00 +6°C° 0 mm 9 mps 747 mmHg 64%
    13:00 +6°C° 0 mm 8 mps 748 mmHg 65%
    14:00 +5°C° 0 mm 8 mps 748 mmHg 66%
    15:00 +5°C° 0 mm 7 mps 749 mmHg 67%
    16:00 +4°C° 0 mm 7 mps 749 mmHg 68%
    17:00 +4°C° 0 mm 7 mps 749 mmHg 70%
    18:00 +4°C° 0 mm 7 mps 750 mmHg 71%
    19:00 +4°C° 0 mm 7 mps 750 mmHg 72%
    20:00 +4°C° 0 mm 7 mps 750 mmHg 73%
    21:00 +4°C° 0 mm 7 mps 751 mmHg 73%
    22:00 +4°C° 0 mm 6 mps 751 mmHg 75%
    23:00 +4°C° 0 mm 6 mps 751 mmHg 76%
    Show more